MDT,Max TemperatureF,Mean TemperatureF,Min TemperatureF,Max Dew PointF,MeanDew PointF,Min DewpointF,Max Humidity, Mean Humidity, Min Humidity, Max Sea Level PressureIn, Mean Sea Level PressureIn, Min Sea Level PressureIn, Max VisibilityMiles, Mean VisibilityMiles, Min VisibilityMiles, Max Wind SpeedMPH, Mean Wind SpeedMPH, Max Gust SpeedMPH,PrecipitationIn, CloudCover, Events, WindDirDegrees
2013-4-1,74,61,48,23,15,3,34,21,7,29.95,29.83,29.72,10,10,10,18,7,22,0.00,4,,208
2013-4-2,67,56,44,29,15,-2,46,26,6,29.91,29.81,29.68,10,10,10,31,10,37,T,5,,190
2013-4-3,67,53,39,30,25,16,64,40,15,30.05,29.98,29.91,10,10,10,20,7,23,0.00,3,,11
2013-4-4,72,58,43,27,17,6,53,31,8,30.16,30.05,29.96,10,10,10,12,5,15,0.00,3,,57
2013-4-5,76,63,50,16,11,8,21,15,8,29.98,29.84,29.67,10,10,10,28,12,32,0.00,6,,183
2013-4-6,76,62,48,22,18,12,34,22,9,30.00,29.78,29.68,10,10,10,22,8,28,0.00,5,,233
2013-4-7,76,62,48,24,18,11,32,20,8,29.95,29.70,29.60,10,10,10,25,9,30,0.00,6,,262
2013-4-8,78,63,47,28,20,12,35,22,9,29.81,29.43,29.22,10,10,6,39,17,51,0.00,3,,211
2013-4-9,54,48,41,36,31,25,73,56,38,29.80,29.55,29.26,10,10,6,28,12,36,0.07,7,Rain,189
2013-4-10,48,41,34,35,25,18,85,59,33,29.96,29.89,29.82,10,10,10,22,8,26,0.01,6,,321
2013-4-11,65,48,31,29,22,16,63,41,19,29.99,29.85,29.73,10,10,10,26,9,33,0.00,3,,330
2013-4-12,69,56,42,30,27,21,53,36,18,29.84,29.78,29.71,10,10,10,28,5,43,T,4,,191
2013-4-13,75,60,45,27,19,11,39,24,9,29.82,29.68,29.54,10,10,10,28,9,32,0.00,3,,283
2013-4-14,77,67,56,23,20,16,25,18,10,29.60,29.52,29.43,10,10,10,32,18,38,0.00,2,,247
2013-4-15,81,64,46,23,16,8,34,20,6,29.64,29.55,29.40,10,10,10,30,12,43,0.00,0,,218
2013-4-16,80,64,48,22,13,0,27,16,4,29.68,29.58,29.47,10,10,10,39,17,46,0.00,1,,182
2013-4-17,63,52,40,27,18,8,39,27,14,29.90,29.66,29.54,10,10,7,35,14,40,0.00,4,,261
2013-4-18,50,41,32,18,4,-3,40,26,12,30.19,30.05,29.92,10,10,10,31,14,39,0.00,1,,309
2013-4-19,61,44,27,4,1,-7,31,20,9,30.30,30.13,29.94,10,10,10,16,5,20,0.00,1,,169
2013-4-20,70,56,42,19,5,-7,24,17,9,29.94,29.87,29.75,10,10,9,30,10,47,0.00,4,,307
2013-4-21,75,56,36,20,14,4,40,23,6,30.06,29.95,29.86,10,10,10,17,6,29,0.00,0,,328
2013-4-22,82,64,45,14,11,7,25,16,6,29.91,29.78,29.63,10,10,10,29,12,37,0.00,1,,232
2013-4-23,69,55,40,29,16,-14,46,26,5,30.01,29.80,29.67,10,10,10,36,13,44,0.00,3,,6
2013-4-24,69,50,31,19,16,12,54,34,13,30.16,30.04,29.95,10,10,10,18,5,23,0.00,3,,15
2013-4-25,78,65,52,29,22,12,32,22,11,30.01,29.88,29.70,10,10,8,39,15,46,0.00,6,,69
2013-4-26,75,60,45,30,19,1,45,26,6,30.23,30.00,29.90,10,10,10,23,8,28,0.00,2,,265
2013-4-27,76,63,49,29,13,-6,42,24,5,30.13,30.03,29.93,10,10,10,21,7,25,0.00,1,,8
2013-4-28,80,64,48,10,2,-7,15,10,4,29.98,29.88,29.74,10,10,10,16,4,20,0.00,0,,280
2013-4-29,85,67,49,14,9,1,17,12,6,29.82,29.70,29.59,10,10,10,25,6,39,0.00,1,,259
2013-4-30,86,69,52,17,13,10,19,13,6,29.84,29.63,29.56,10,10,10,28,10,39,0.00,2,,227